Wind_Speed
3 2 2 4 6 7 9 10 12 14 15 16 16 17 18 18 19 18 18 19 19 19 20 20 21 22 23 24 25 25 26 26 25 25 24 23 21 21 20 19 17 17
4 3 2 2 3 4 6 7 9 11 12 13 14 15 16 17 17 17 17 17 18 18 18 19 19 20 21 22 23 24 25 25 25 26 25 24 23 22 22 20 19 18
5 5 4 3 3 3 3 5 6 8 9 11 12 13 14 14 15 15 16 16 16 17 17 17 18 18 19 21 22 23 23 24 25 26 26 25 24 24 23 22 21 20
6 6 5 5 4 4 4 4 4 6 7 8 10 11 12 12 13 14 14 15 15 15 16 16 17 17 18 19 20 21 22 23 24 25 26 25 25 24 24 23 23 22
6 5 5 5 5 6 6 5 5 5 6 6 7 8 10 11 12 12 13 14 15 15 15 15 16 16 17 18 19 19 20 21 22 23 24 24 24 24 24 24 24 24
7 5 5 5 6 6 7 7 6 6 6 6 6 7 8 9 10 11 12 13 14 14 15 15 15 15 16 16 17 18 18 19 20 21 22 23 23 23 24 24 24 24
9 7 5 4 5 6 7 8 8 8 8 7 7 7 7 8 9 10 11 12 13 14 14 15 14 14 14 15 15 16 16 17 18 19 20 21 21 22 22 23 24 24
10 7 6 5 5 6 7 8 9 9 9 9 8 8 7 8 8 9 10 11 12 13 14 14 14 14 14 13 14 14 15 15 16 17 18 19 19 20 20 21 22 23
11 8 7 6 6 6 7 8 9 10 11 11 10 10 9 9 9 8 9 10 12 13 13 14 14 14 14 13 13 13 13 14 14 15 16 17 17 18 18 19 20 21
15 11 8 8 8 8 9 9 10 11 11 12 12 12 11 10 10 10 10 10 11 12 13 13 13 14 14 13 13 13 12 13 13 13 14 15 15 16 16 17 17 18
18 15 13 10 10 10 10 11 12 12 13 13 13 13 13 12 12 12 12 11 11 12 13 13 13 13 13 13 13 12 12 12 11 11 12 12 13 14 14 15 15 16
19 17 17 15 15 14 13 13 14 14 15 15 14 15 15 15 14 14 13 13 12 12 13 13 13 13 12 12 12 12 11 10 10 10 10 10 10 11 12 13 13 14
20 18 19 20 19 18 15 13 14 16 17 17 17 16 16 16 16 16 16 15 13 12 13 13 13 13 12 11 10 10 10 9 9 9 8 8 8 8 9 10 10 11
24 21 22 21 20 18 15 12 14 16 19 21 21 19 18 17 17 18 18 16 15 14 13 13 14 14 13 13 11 10 10 9 8 8 7 7 7 6 6 7 7 8
27 25 24 22 21 19 16 14 15 18 20 24 26 24 21 19 19 20 19 17 16 15 14 13 13 13 14 13 12 11 10 9 9 8 7 6 6 5 5 4 4 5
30 27 26 23 22 21 18 16 18 20 22 24 27 28 26 24 23 23 22 20 18 17 16 15 14 13 14 14 14 13 11 10 10 9 9 8 7 6 5 4 3 3
33 30 29 26 24 23 22 21 21 23 24 24 26 29 30 29 28 26 24 23 22 20 19 18 17 16 15 15 15 15 14 13 12 11 11 10 9 8 7 6 5 4
38 35 33 32 30 28 28 29 28 27 27 25 24 26 29 31 32 31 28 26 25 24 22 20 19 19 18 17 16 16 17 16 15 14 14 13 12 11 10 9 8 8
42 39 37 37 35 33 34 36 35 32 30 29 28 27 30 32 33 34 34 31 29 27 26 23 21 20 20 20 19 18 18 18 18 18 17 16 15 14 13 12 11 11
44 42 41 41 41 41 41 41 42 40 38 36 34 33 33 34 34 35 36 36 35 32 31 28 25 22 22 22 21 21 20 19 19 20 19 19 18 17 16 15 14 13
48 46 44 42 42 46 50 51 50 48 46 42 40 39 37 36 37 37 37 37 37 35 33 32 29 26 24 23 21 21 21 20 19 19 19 19 19 18 18 17 17 16
58 56 52 46 40 40 48 55 56 52 49 46 44 43 41 39 38 38 37 37 36 34 32 33 33 31 28 25 23 21 21 22 21 20 19 19 19 19 19 19 20 19
68 66 65 60 49 38 38 46 52 52 50 49 48 46 43 41 41 41 40 38 37 34 32 33 35 34 33 31 29 27 25 25 25 24 22 22 22 21 21 22 22 22
74 73 72 69 62 53 46 45 48 50 51 50 50 48 45 43 43 44 43 42 41 38 36 35 36 35 34 34 34 33 30 29 29 28 25 23 22 22 22 23 23 24
81 80 78 73 70 69 66 62 60 59 56 54 53 50 46 44 45 47 47 45 44 43 41 41 39 36 34 35 36 35 33 33 33 32 30 27 23 22 23 24 25 25
87 85 83 79 76 75 74 73 69 65 62 60 57 52 49 48 48 49 50 49 47 46 45 46 45 41 37 36 36 35 35 35 36 36 35 34 30 27 26 26 26 26
Wind_Direction
353 18 46 57 64 65 62 59 58 56 52 50 49 48 48 47 45 42 42 45 49 50 51 53 54 56 59 60 60 60 60 59 58 58 58 58 59 61 61 60 59 58
325 325 336 14 44 56 58 55 55 55 52 49 47 44 45 45 43 41 38 39 43 45 47 48 49 51 55 58 59 59 60 59 59 59 59 58 59 60 61 61 61 61
311 314 316 333 351 11 31 39 44 48 49 48 45 41 40 40 39 38 36 35 36 39 41 43 44 45 49 53 56 57 59 60 60 61 60 60 60 60 61 61 61 62
295 303 307 320 331 338 344 354 9 24 33 39 41 39 36 34 31 31 31 30 30 32 35 39 39 40 43 46 50 53 56 58 60 61 62 62 61 62 62 62 62 62
268 286 298 311 321 327 331 331 334 345 1 15 25 30 30 28 25 23 21 22 23 24 27 32 35 36 38 41 45 48 51 55 58 60 62 63 63 64 64 64 64 64
244 253 275 298 312 319 321 319 317 320 327 340 355 7 14 17 18 16 13 11 13 15 18 22 28 32 34 37 41 44 47 50 55 58 61 63 63 64 65 65 66 67
237 233 242 271 299 310 312 310 308 310 311 313 323 334 345 356 3 6 7 4 3 4 8 12 17 23 27 31 36 40 44 46 50 55 58 61 62 62 64 65 67 68
239 231 228 238 268 291 299 300 300 301 301 301 302 307 314 326 338 348 354 356 356 355 357 0 5 12 17 23 28 33 39 43 46 50 54 57 59 61 62 63 65 67
233 231 237 239 243 259 274 284 290 293 294 295 294 294 296 301 310 322 335 343 346 348 350 352 354 0 6 12 17 22 31 37 40 44 48 52 54 56 58 60 61 63
235 239 250 260 263 260 261 267 275 281 284 288 289 288 288 290 294 301 311 323 332 337 341 344 345 350 355 1 6 11 18 25 31 37 41 45 47 48 52 54 57 60
249 250 253 267 278 273 268 271 276 279 281 283 286 287 287 287 287 289 294 302 314 322 328 333 337 341 346 351 357 1 5 11 19 27 33 38 42 42 43 46 49 52
255 258 258 265 276 276 269 269 274 277 279 280 280 281 284 287 287 285 286 288 294 303 311 318 325 331 337 342 346 350 354 359 5 13 22 30 36 38 38 38 40 41
247 256 261 267 278 280 269 266 273 275 274 274 273 272 272 277 282 283 283 283 283 288 295 302 310 317 324 331 334 338 342 345 349 355 5 16 25 32 35 33 32 32
240 249 257 262 269 269 262 268 280 282 278 270 265 265 263 264 271 275 279 281 279 280 285 292 300 306 312 318 323 324 327 329 332 335 342 354 4 16 27 30 26 25
237 247 253 251 251 252 252 261 271 280 284 274 263 262 264 267 273 276 278 281 281 281 284 288 295 301 307 312 315 315 315 314 315 317 320 326 335 346 360 13 17 13
235 244 249 243 240 242 248 254 259 269 279 277 269 267 269 272 277 281 284 286 287 287 287 290 295 299 302 306 309 311 309 305 303 303 303 304 305 308 317 326 334 339
235 240 245 242 236 236 240 246 254 262 269 272 273 273 274 276 278 282 287 290 290 288 287 290 292 294 296 298 300 304 305 304 300 295 292 291 291 288 288 291 293 293
233 236 241 243 242 239 240 245 252 259 263 267 271 273 275 277 278 279 282 287 289 289 288 289 287 287 288 289 290 293 298 301 300 297 291 286 282 281 278 275 277 277
232 234 238 242 244 245 246 248 252 257 262 265 267 267 268 272 277 279 278 279 282 285 287 287 283 280 280 282 284 285 290 296 299 299 296 290 282 278 274 270 268 269
232 236 239 243 246 248 249 251 254 257 262 267 267 264 264 266 271 275 275 275 276 280 283 283 280 276 275 276 278 281 284 290 294 297 298 295 289 281 274 271 268 266
234 239 243 247 250 251 250 252 255 257 260 265 267 265 263 262 264 267 269 269 270 274 279 280 277 271 268 269 273 277 281 285 289 293 294 295 295 289 281 275 271 268
239 241 244 247 251 252 251 252 252 254 258 263 266 265 262 259 258 260 261 261 263 266 271 275 274 269 267 270 275 280 286 288 290 291 292 292 293 291 287 280 275 271
240 242 244 247 247 246 249 250 249 251 257 262 265 265 261 256 253 253 253 254 257 259 262 268 271 269 269 272 275 278 284 288 286 284 284 285 285 284 284 281 276 272
240 241 245 247 245 242 244 248 251 254 258 261 264 265 260 253 250 251 250 250 253 256 258 261 263 264 265 268 271 271 275 280 280 277 276 278 279 278 277 275 272 269
242 242 245 247 246 245 247 249 252 257 259 260 263 264 257 249 248 249 250 250 251 254 255 257 258 258 259 261 264 265 268 274 277 276 276 276 275 274 273 271 269 267
244 244 245 246 247 247 249 250 252 254 256 259 262 262 255 248 246 246 248 250 251 251 253 255 256 257 257 257 259 261 264 269 272 272 273 274 273 271 269 269 267 265
Height
11035 11034 11034 11033 11033 11033 11032 11031 11030 11030 11029 11029 11029 11029 11028 11027 11027 11026 11026 11025 11025 11024 11023 11022 11020 11019 11018 11017 11016 11015 11013 11013 11012 11011 11010 11009 11008 11007 11007 11006 11005 11004
11035 11035 11034 11034 11034 11034 11033 11032 11032 11031 11030 11030 11030 11030 11029 11029 11028 11028 11028 11027 11027 11026 11025 11024 11023 11022 11021 11020 11019 11017 11016 11016 11015 11014 11013 11012 11011 11010 11008 11007 11007 11006
11035 11035 11035 11035 11035 11035 11034 11034 11033 11032 11032 11031 11031 11031 11031 11030 11030 11030 11030 11029 11029 11028 11028 11027 11026 11025 11024 11023 11022 11021 11020 11019 11018 11017 11016 11015 11013 11012 11011 11009 11008 11007
11036 11035 11035 11035 11035 11035 11035 11035 11035 11034 11033 11033 11032 11032 11032 11031 11031 11031 11031 11031 11031 11030 11030 11029 11028 11028 11027 11026 11025 11024 11023 11022 11020 11019 11018 11017 11016 11015 11013 11012 11011 11009
11035 11035 11035 11035 11035 11036 11036 11036 11036 11035 11035 11034 11033 11033 11033 11032 11033 11032 11032 11032 11032 11032 11032 11032 11031 11030 11029 11029 11028 11027 11026 11025 11023 11022 11021 11020 11019 11018 11016 11015 11013 11012
11035 11035 11035 11035 11035 11036 11036 11036 11036 11036 11035 11035 11034 11034 11033 11033 11033 11033 11033 11034 11034 11034 11034 11033 11033 11032 11032 11031 11031 11030 11029 11028 11027 11025 11024 11023 11022 11020 11019 11018 11016 11015
11035 11034 11034 11034 11034 11035 11036 11036 11036 11036 11036 11035 11035 11034 11034 11034 11034 11034 11034 11035 11035 11035 11035 11035 11035 11035 11034 11033 11033 11032 11032 11031 11030 11029 11027 11026 11025 11023 11022 11021 11019 11018
11035 11034 11033 11033 11033 11034 11034 11035 11035 11035 11035 11035 11035 11035 11035 11034 11034 11035 11035 11035 11036 11036 11036 11036 11036 11036 11036 11035 11035 11034 11034 11033 11032 11032 11030 11029 11028 11026 11025 11024 11022 11021
11034 11034 11033 11032 11032 11032 11033 11033 11034 11034 11035 11035 11035 11035 11035 11035 11035 11035 11035 11035 11036 11036 11036 11037 11037 11037 11038 11037 11037 11036 11036 11035 11035 11034 11033 11032 11030 11029 11028 11026 11025 11024
11033 11033 11032 11032 11031 11031 11032 11032 11033 11033 11034 11034 11035 11035 11035 11035 11035 11035 11035 11035 11036 11036 11036 11037 11037 11038 11038 11039 11038 11038 11037 11037 11037 11036 11035 11034 11033 11032 11031 11029 11028 11026
11031 11032 11031 11031 11031 11030 11031 11031 11032 11033 11033 11034 11034 11035 11035 11035 11035 11035 11035 11035 11035 11035 11036 11036 11037 11038 11039 11039 11039 11039 11039 11038 11038 11038 11037 11037 11036 11035 11033 11032 11031 11029
11030 11030 11030 11030 11030 11029 11029 11030 11031 11032 11032 11032 11033 11034 11034 11034 11035 11035 11034 11035 11035 11035 11035 11036 11037 11037 11038 11039 11040 11040 11040 11039 11039 11039 11039 11038 11038 11037 11036 11034 11033 11032
11028 11028 11028 11028 11028 11028 11027 11027 11028 11029 11030 11031 11031 11031 11032 11033 11033 11034 11034 11034 11034 11034 11035 11035 11036 11037 11037 11039 11039 11040 11040 11040 11040 11039 11039 11039 11039 11038 11037 11036 11035 11034
11024 11025 11025 11026 11027 11026 11025 11024 11025 11026 11027 11028 11028 11028 11029 11030 11031 11031 11032 11032 11033 11033 11034 11035 11035 11036 11036 11037 11038 11039 11040 11040 11040 11040 11040 11039 11039 11039 11038 11038 11036 11035
11021 11021 11022 11023 11024 11024 11022 11021 11021 11022 11023 11023 11024 11024 11026 11027 11028 11029 11030 11030 11031 11032 11033 11034 11034 11035 11035 11036 11037 11038 11039 11039 11039 11040 11039 11039 11039 11039 11038 11038 11037 11036
11017 11018 11019 11019 11020 11020 11019 11017 11016 11017 11018 11020 11021 11023 11024 11026 11027 11028 11029 11030 11030 11031 11032 11033 11034 11034 11034 11035 11036 11037 11038 11038 11039 11039 11039 11039 11038 11038 11038 11037 11037 11036
11014 11015 11015 11016 11017 11017 11016 11014 11013 11014 11015 11017 11019 11022 11024 11025 11026 11028 11029 11030 11030 11030 11031 11032 11033 11034 11034 11034 11034 11035 11036 11037 11038 11038 11038 11038 11038 11037 11037 11036 11036 11036
11009 11011 11011 11012 11013 11014 11013 11012 11012 11013 11014 11016 11018 11020 11022 11023 11024 11026 11028 11029 11029 11029 11030 11031 11032 11032 11033 11033 11033 11034 11034 11035 11036 11036 11037 11037 11037 11036 11036 11036 11035 11035
11004 11006 11007 11008 11009 11010 11010 11010 11010 11012 11013 11014 11017 11018 11019 11021 11022 11024 11026 11027 11028 11028 11028 11029 11029 11030 11031 11032 11032 11033 11033 11033 11033 11034 11034 11035 11035 11035 11035 11035 11035 11034
10998 11001 11003 11005 11006 11007 11007 11007 11008 11009 11010 11011 11014 11016 11017 11019 11020 11022 11023 11024 11025 11026 11026 11026 11027 11028 11029 11030 11031 11031 11031 11030 11030 11031 11031 11032 11033 11034 11034 11034 11034 11033
10993 10995 10998 11001 11004 11004 11003 11003 11004 11005 11006 11008 11010 11012 11015 11017 11018 11019 11019 11021 11022 11023 11023 11023 11024 11025 11026 11026 11027 11028 11027 11027 11027 11028 11029 11029 11031 11032 11032 11033 11032 11032
10987 10989 10992 10997 11001 11001 10999 10998 10999 11001 11002 11004 11006 11008 11011 11013 11014 11015 11016 11017 11018 11019 11020 11020 11020 11021 11022 11023 11024 11024 11024 11024 11024 11025 11026 11027 11028 11029 11030 11030 11030 11030
10979 10982 10985 10990 10995 10997 10995 10992 10993 10996 10998 10999 11001 11004 11006 11008 11009 11011 11012 11012 11013 11015 11015 11016 11016 11017 11019 11020 11021 11022 11022 11022 11022 11023 11024 11024 11025 11026 11026 11027 11027 11027
10972 10975 10978 10982 10987 10990 10990 10988 10988 10990 10993 10994 10996 10999 11001 11003 11005 11006 11008 11008 11009 11010 11011 11011 11012 11014 11016 11017 11018 11019 11019 11019 11018 11019 11020 11021 11021 11022 11023 11023 11023 11023
10963 10967 10970 10974 10977 10979 10981 10983 10984 10986 10988 10990 10992 10994 10996 10998 11000 11001 11003 11004 11005 11005 11006 11006 11007 11009 11012 11012 11013 11014 11016 11016 11016 11015 11015 11016 11018 11019 11020 11020 11020 11020
10954 10957 10961 10965 10968 10970 10973 10975 10978 10981 10983 10985 10987 10989 10990 10992 10994 10996 10997 10998 10999 11000 11001 11000 11002 11004 11007 11007 11008 11010 11013 11013 11013 11012 11011 11012 11014 11015 11016 11016 11016 11016